Theta_e
335 337 338 339 339 340 343 345 346 348 349 349 349 349 349 350 351 351 354 354 354 353 354 352 350 350 351 351 350 351 351 353 353 352 352 355 358 359 360 361 361 360 359 358 358 362 355 354 353 352 351 350 347 345 346 346 344 341 341 345 336 334 335 334 333 330 327 327 327 330 333 339 348 349 337 338 342 343 345 343 344 341 342 346 348
334 334 335 337 338 339 342 344 347 345 347 348 348 348 348 350 350 351 354 353 353 353 354 353 352 351 350 351 351 351 351 351 351 351 351 356 359 360 361 361 361 360 360 359 360 359 354 354 353 352 350 348 348 348 345 350 346 341 340 335 336 332 329 334 332 327 326 324 323 326 331 331 342 342 342 340 340 341 340 339 339 337 340 343 346
332 333 334 335 337 338 341 342 345 346 346 347 348 348 348 349 350 351 353 353 353 353 354 353 353 353 352 352 352 352 354 354 353 353 354 356 360 360 361 361 361 361 361 361 360 357 355 353 353 352 350 351 347 344 342 341 335 339 336 332 331 333 336 337 328 325 323 328 329 326 321 324 332 330 332 334 339 338 334 333 335 334 339 342 343
330 331 332 334 336 337 339 341 343 345 346 346 347 347 348 349 349 351 352 353 353 353 355 355 355 354 353 354 354 354 353 356 355 355 353 358 358 361 361 361 361 361 362 361 360 358 355 353 352 351 350 350 346 342 337 332 334 335 334 339 329 327 326 331 341 332 328 327 324 323 322 325 320 321 325 331 333 333 333 332 334 334 337 339 341
330 331 333 334 335 336 338 341 343 343 344 345 346 347 349 348 349 351 352 353 353 354 355 355 356 353 353 354 354 352 354 353 352 351 351 357 358 359 360 361 362 361 361 360 359 356 356 354 352 352 349 348 342 340 336 333 336 336 338 337 329 326 328 330 336 338 332 331 329 326 321 319 319 323 327 326 333 329 330 330 336 332 335 338 336
331 331 332 334 336 336 338 340 341 343 343 345 347 347 348 349 349 351 352 354 354 354 355 355 354 352 351 350 348 348 348 348 348 349 349 352 357 360 361 361 362 361 360 360 358 356 355 355 352 350 348 347 344 341 337 333 336 335 337 333 330 330 329 330 330 337 339 344 332 327 324 320 321 324 320 318 330 334 331 332 334 330 334 335 333
332 333 333 334 336 336 337 338 340 342 344 345 347 347 347 349 348 351 351 353 354 354 354 355 353 352 351 350 349 348 347 349 351 352 352 352 358 359 360 361 362 360 359 359 358 356 356 354 351 348 346 344 347 341 336 334 337 336 338 332 331 339 331 329 330 330 332 335 337 336 339 336 328 323 319 321 318 322 330 328 328 330 330 330 332
332 332 333 334 336 337 337 339 340 341 344 345 346 347 346 349 348 351 352 354 355 355 354 355 353 352 351 350 351 349 348 348 350 351 352 352 356 359 360 360 361 359 357 357 358 357 356 353 350 346 344 343 347 339 337 336 338 339 340 334 333 335 332 331 329 332 328 330 340 334 338 337 331 328 326 322 319 319 322 325 328 328 330 330 333
333 333 333 334 335 337 339 339 340 342 344 345 346 347 347 349 349 351 352 354 354 355 354 354 354 353 352 351 350 350 349 349 351 351 350 352 355 358 359 359 359 358 356 356 356 356 357 352 349 345 343 343 349 337 336 336 337 338 335 333 333 334 334 333 331 330 331 329 329 329 329 329 328 330 331 329 325 317 318 321 323 326 325 324 329
333 334 334 335 336 337 339 341 341 341 344 347 347 348 348 348 350 349 351 353 354 355 355 354 354 354 351 350 349 349 349 347 349 348 348 350 354 357 357 357 357 356 355 355 355 356 355 351 349 345 344 344 348 338 336 337 336 337 335 332 333 335 336 336 333 331 332 332 329 329 328 329 326 325 326 323 323 319 317 318 322 321 320 321 327
332 333 335 335 337 337 339 339 340 341 343 346 347 348 348 348 350 349 349 353 354 354 354 353 353 353 351 350 350 349 349 347 346 347 348 348 352 355 356 356 356 356 355 355 355 355 353 352 349 346 345 348 348 338 337 338 336 335 334 333 334 335 333 333 340 337 335 335 331 330 328 327 325 324 323 325 323 321 320 323 323 326 322 322 326
331 332 334 335 335 336 337 338 339 340 341 344 347 348 349 348 349 349 349 351 353 354 354 354 354 353 352 351 350 350 350 349 346 346 349 347 351 354 355 355 355 355 354 353 353 353 351 350 349 347 346 345 343 337 339 337 336 335 334 335 333 334 334 337 337 334 332 331 332 331 331 330 331 327 327 328 326 323 320 318 321 324 325 325 331
330 331 333 334 334 335 335 337 338 338 340 343 346 348 349 349 349 349 349 350 351 354 354 353 353 353 352 351 350 351 351 350 348 346 350 349 349 352 353 352 354 352 352 351 352 351 350 349 346 346 345 344 342 337 338 337 336 335 334 335 335 334 335 336 334 333 334 331 330 333 332 333 332 332 329 330 326 325 320 318 322 324 320 322 325
329 331 332 334 335 335 336 337 338 339 339 342 344 347 349 349 349 349 350 351 351 352 353 353 353 353 353 352 351 351 352 352 350 347 348 350 349 351 353 352 352 352 351 350 352 351 350 349 348 346 346 343 341 338 338 338 337 335 335 335 335 337 335 336 335 335 334 334 332 331 331 332 332 333 331 330 328 325 321 321 323 322 321 321 322
330 330 331 333 335 336 336 337 338 339 340 341 343 346 348 349 349 349 349 352 352 351 352 352 353 353 353 353 353 352 352 352 352 351 349 350 349 350 352 352 352 351 352 351 352 350 350 349 348 346 345 341 339 339 339 338 338 337 337 336 338 337 337 337 335 334 335 334 333 331 331 330 330 331 332 329 328 328 326 325 323 320 319 318 322
330 331 331 332 335 336 336 337 339 339 340 341 343 345 347 349 350 350 349 351 353 353 351 352 352 353 353 353 353 353 354 354 353 353 352 351 350 351 351 351 351 351 352 351 351 350 349 348 349 347 345 340 336 339 339 338 338 337 337 336 336 341 336 336 335 334 333 333 333 332 331 329 332 332 331 332 329 330 329 328 325 321 317 314 315
331 331 332 332 334 336 337 337 338 340 340 341 343 344 346 348 350 349 350 351 353 354 352 352 352 352 353 353 354 354 354 353 353 352 353 353 351 351 351 351 351 350 351 351 350 350 349 348 348 347 344 341 336 337 340 338 338 338 337 336 335 339 337 335 335 333 333 334 331 332 329 329 331 333 333 333 332 331 330 328 326 322 319 314 312
332 332 333 334 334 336 337 338 339 340 341 341 343 345 347 349 350 350 350 350 352 353 354 353 352 351 352 353 354 354 355 355 354 353 354 353 352 351 351 350 351 351 351 351 350 349 349 352 348 347 344 340 337 335 340 339 338 338 337 337 337 338 337 335 336 335 333 333 334 333 332 330 332 333 332 334 333 331 330 330 327 326 322 318 315
330 331 333 334 334 335 337 338 339 341 342 342 344 345 347 349 351 352 351 352 352 354 354 355 354 353 353 353 354 355 355 356 355 355 354 353 352 351 351 351 351 351 351 350 349 349 348 348 348 346 343 340 338 335 338 339 338 337 337 336 337 337 336 335 335 336 335 334 333 332 331 330 332 332 331 331 334 332 330 329 328 329 327 323 321
329 331 333 334 335 336 337 338 338 340 341 343 344 345 347 349 351 352 353 353 353 353 355 354 354 354 354 354 354 355 356 356 356 355 354 353 353 351 351 350 350 352 351 351 349 349 348 347 347 345 342 340 338 337 337 338 338 337 338 336 336 337 335 334 334 335 335 334 333 332 332 331 330 331 331 331 332 333 332 330 330 330 328 327 325
329 331 332 334 335 336 338 339 340 341 343 344 344 345 346 349 351 353 352 353 353 354 354 354 355 355 355 354 354 355 355 356 356 356 354 353 353 352 352 352 351 351 351 350 349 349 348 348 347 344 341 339 338 337 337 338 337 336 337 337 336 336 335 334 334 333 334 334 333 333 332 333 332 332 331 331 332 332 332 332 331 329 328 328 327
329 331 332 333 335 337 339 340 341 341 342 343 344 345 346 348 350 353 354 354 354 354 355 355 355 355 355 355 355 355 356 356 355 355 355 354 353 353 352 352 351 351 351 350 350 349 349 348 346 343 340 339 339 338 337 338 337 335 335 338 336 336 335 335 334 333 333 334 334 333 333 333 332 333 331 330 331 331 332 330 329 331 328 329 330
329 330 332 334 335 337 339 339 340 341 342 343 344 345 346 347 350 352 353 354 355 355 356 356 355 355 355 356 356 356 356 355 355 355 355 355 354 354 354 352 352 351 352 351 349 349 349 347 346 343 340 338 338 338 338 338 337 336 335 336 337 336 335 334 334 334 333 333 332 333 333 332 334 330 331 331 331 330 332 331 330 330 330 330 330
330 331 332 333 335 337 338 339 340 340 341 343 344 345 346 347 349 352 353 354 355 356 357 356 356 355 356 356 356 356 356 355 354 355 354 355 355 354 354 353 352 352 351 351 350 348 348 347 345 343 341 339 338 338 338 338 338 337 336 336 336 335 335 334 335 335 334 333 332 332 332 332 333 332 331 331 331 331 330 330 329 329 330 330 330
329 330 330 331 333 335 337 338 339 341 342 343 344 344 345 346 348 350 352 355 356 357 357 356 356 355 355 355 355 356 355 355 354 354 354 355 355 355 355 353 353 352 352 351 350 348 347 346 345 343 341 340 339 338 338 338 338 339 338 337 336 336 335 335 335 335 338 334 333 332 333 333 332 331 330 330 331 330 330 329 329 329 330 331 332
329 329 329 329 332 335 337 338 339 341 342 343 344 344 345 346 347 350 352 354 355 357 357 356 356 355 355 355 355 355 355 355 355 354 354 354 355 355 355 354 353 352 351 351 350 349 347 345 345 344 342 341 340 339 338 338 338 338 338 338 337 336 336 335 335 335 336 335 334 333 333 333 333 332 331 331 331 330 330 330 330 331 331 331 330
328 329 329 329 332 334 336 338 339 341 342 343 344 344 345 346 347 349 351 354 355 356 357 356 356 355 355 354 355 355 356 355 355 355 355 354 354 355 354 354 354 353 351 350 350 349 348 346 345 344 342 341 340 340 339 338 338 338 338 338 337 337 337 337 336 336 336 336 335 334 334 334 333 333 332 332 332 332 333 332 333 333 333 332 330
328 328 328 329 331 334 336 338 339 341 343 344 344 345 345 345 346 348 350 353 355 356 356 356 356 355 354 354 355 355 356 356 356 356 355 354 354 354 354 354 354 353 352 351 350 349 348 347 345 344 343 342 340 340 339 339 339 338 338 337 338 338 337 337 336 336 336 336 336 335 335 335 334 334 334 333 334 334 334 333 333 333 332 331 329
326 327 328 330 331 333 335 337 339 341 341 343 344 345 345 346 347 348 349 351 354 355 356 356 356 355 354 355 355 356 356 356 356 355 355 354 354 353 354 354 354 353 353 352 351 350 348 347 346 344 343 342 341 340 340 339 339 338 339 338 338 338 337 336 335 336 337 336 336 336 335 335 337 341 341 339 339 339 334 332 333 332 331 330 329
327 328 328 330 332 334 335 337 339 341 341 343 344 345 345 345 346 347 348 351 353 354 355 355 355 355 355 355 355 355 355 356 355 355 355 354 354 353 353 353 353 353 353 353 352 351 349 348 346 344 343 342 342 341 337 331 334 340 339 339 339 338 338 337 336 336 336 336 336 336 337 343 343 346 344 342 339 341 341 337 333 331 331 329 328
327 328 329 330 332 334 335 336 338 341 342 343 345 345 346 346 346 347 348 350 352 353 354 354 355 356 356 356 355 355 355 355 355 355 355 355 354 354 353 353 353 353 353 352 352 350 350 349 347 345 344 343 342 341 329 327 329 332 338 339 339 339 338 338 336 336 335 336 336 336 335 341 343 347 344 345 343 342 343 341 338 337 336 331 328
327 328 329 330 332 333 335 337 339 342 343 344 345 346 346 346 347 347 348 349 350 352 352 354 355 356 356 356 355 355 354 354 355 354 355 355 354 354 353 352 352 352 353 353 351 351 350 349 348 347 345 344 343 333 324 326 328 329 333 341 340 339 338 337 337 336 336 336 336 336 335 337 339 340 340 342 346 344 341 341 340 338 336 334 333
327 328 330 331 333 335 336 338 339 342 344 346 347 347 346 347 347 347 348 348 349 350 352 353 354 356 356 356 356 355 354 354 354 355 355 355 354 353 352 351 351 353 353 352 352 351 350 349 348 346 345 345 344 330 324 325 328 327 329 335 340 339 338 337 337 336 335 335 335 335 335 336 337 346 344 337 336 337 339 339 338 338 336 333 330
329 330 331 333 335 336 338 339 340 342 345 347 349 348 349 349 349 348 347 348 348 350 351 352 354 355 356 356 356 355 354 354 355 355 355 354 353 352 352 352 352 352 352 352 352 351 350 349 348 347 346 345 344 327 323 323 325 325 327 332 339 338 338 338 337 336 335 334 334 333 333 334 334 338 338 337 335 333 331 331 332 332 333 335 330
332 331 332 334 335 336 338 339 340 342 344 346 348 350 350 350 349 348 348 347 348 349 350 352 353 355 356 356 355 355 354 354 354 355 354 354 354 353 353 352 352 352 352 352 352 351 351 350 349 348 346 345 345 323 321 322 322 322 325 329 338 338 338 337 336 336 335 334 333 334 333 333 334 334 335 336 335 334 331 332 330 330 330 331 332
331 333 333 333 334 336 337 339 342 343 344 345 347 350 350 350 350 349 348 348 348 348 350 351 352 354 355 356 355 355 354 354 354 354 354 354 354 353 353 353 352 353 353 354 353 353 351 350 349 348 346 344 344 320 321 321 321 321 323 332 337 337 336 335 334 334 334 334 334 334 334 333 334 334 335 333 338 335 332 330 329 330 331 332 334
329 336 338 338 336 337 339 341 342 344 345 346 347 349 350 350 350 349 348 348 348 348 348 350 351 353 355 355 355 355 354 354 354 353 353 354 354 354 354 354 353 353 353 353 353 352 352 350 348 347 346 344 342 323 320 319 319 319 322 333 336 337 336 335 334 334 334 334 335 335 335 334 334 334 332 325 329 343 331 331 330 329 331 332 331
320 329 337 341 341 341 343 345 344 344 346 348 348 348 349 349 350 350 349 348 347 347 349 350 351 352 354 355 356 355 354 354 353 353 353 354 355 355 355 355 354 353 353 353 353 352 350 350 348 346 346 344 342 326 318 318 318 318 324 334 337 336 335 334 334 334 334 334 335 342 340 335 335 334 327 323 324 337 331 331 331 331 331 330 330
317 324 332 337 341 342 343 346 347 348 349 349 349 349 350 349 349 350 349 348 347 348 349 349 351 352 354 356 356 356 355 355 354 354 354 354 355 355 356 355 355 355 354 352 350 349 346 346 346 346 344 343 342 329 316 317 316 315 326 336 337 336 334 333 333 332 331 332 332 340 343 337 335 331 322 321 322 333 332 331 331 331 330 329 328
346 342 329 333 339 341 341 342 345 349 352 352 350 350 350 350 350 350 349 348 348 349 350 351 352 352 354 356 357 356 356 356 355 355 355 356 357 356 355 354 354 353 350 348 346 345 343 342 343 344 343 343 338 331 322 314 313 313 320 336 336 335 333 332 331 331 329 328 329 331 335 327 324 322 319 317 317 321 331 332 332 330 328 328 325
340 340 344 328 332 341 342 342 344 348 351 352 352 351 350 350 350 350 349 350 351 351 350 351 351 352 354 356 358 358 357 357 358 357 357 357 357 356 354 352 350 348 346 344 343 341 341 339 339 339 339 337 337 330 323 311 311 312 317 326 335 335 334 332 329 329 328 327 328 330 332 326 319 317 316 314 313 315 325 332 329 328 328 325 320
340 341 340 343 343 336 334 341 343 345 348 350 352 351 349 350 350 350 351 353 353 351 351 351 351 352 354 356 358 359 359 359 359 358 356 356 356 355 353 350 347 345 343 341 339 338 337 334 333 334 335 335 333 328 325 312 312 311 314 321 333 335 334 331 328 328 326 326 328 330 331 327 319 316 314 312 310 312 318 326 323 316 313 315 320
335 337 339 339 337 338 340 342 346 347 350 351 350 349 349 349 349 350 353 354 354 352 352 352 351 353 354 357 358 358 358 360 359 357 356 354 353 352 348 345 344 343 341 338 336 335 333 332 331 331 331 331 331 329 320 319 311 310 311 315 321 328 324 332 329 327 327 327 329 329 329 324 317 312 309 309 308 311 319 323 313 308 310 315 321
333 335 336 340 336 336 340 343 345 345 347 352 352 350 349 347 349 353 354 354 354 354 354 353 352 354 356 358 359 359 360 359 357 356 354 352 349 347 344 342 342 340 337 335 333 333 333 331 329 328 328 328 328 326 320 318 317 311 309 311 313 317 319 328 328 327 328 329 329 329 328 317 309 305 304 306 308 312 318 310 307 309 312 316 316
331 332 334 336 339 336 337 338 340 342 343 343 350 352 350 350 351 353 353 354 355 355 355 355 355 356 357 359 359 359 358 357 355 354 350 348 344 343 340 339 339 337 335 334 333 333 332 331 330 328 327 326 328 326 322 320 316 311 310 311 312 314 315 318 327 327 329 329 324 318 313 306 306 303 304 308 309 311 309 306 306 311 318 313 313
332 332 333 335 337 338 337 336 336 338 341 342 344 346 350 351 355 356 356 357 357 356 355 356 357 358 358 358 357 356 355 354 352 351 349 346 343 341 339 337 337 336 335 334 332 332 331 331 329 328 329 329 327 327 324 322 320 317 315 312 312 314 320 320 322 322 319 315 310 307 306 307 307 308 313 316 318 315 310 310 310 313 315 312 312
330 331 332 331 332 333 334 333 333 336 339 341 343 342 341 343 344 349 353 353 352 355 354 356 357 357 357 356 354 352 350 349 347 346 344 342 341 339 338 336 336 336 334 333 332 331 331 329 328 329 330 329 328 327 326 324 322 319 319 317 315 315 316 316 319 317 315 314 311 313 314 312 313 313 317 318 319 316 311 310 311 313 313 313 313
329 331 332 331 332 333 334 335 335 338 340 340 339 339 340 341 343 344 344 344 343 344 349 353 355 355 354 353 350 350 346 344 342 341 340 339 339 339 338 336 335 335 333 332 332 331 329 329 329 330 330 330 328 327 325 324 322 321 320 317 317 318 318 320 317 316 316 318 317 314 312 316 316 315 315 315 314 315 314 312 310 311 312 313 316
328 329 331 332 333 333 334 333 334 338 339 338 337 338 339 339 340 341 341 338 336 335 338 345 350 351 348 347 347 344 342 341 336 327 327 333 337 338 336 332 330 335 336 334 332 331 331 331 332 331 331 329 329 327 328 319 324 316 318 317 317 318 318 320 320 315 320 319 317 316 316 316 315 315 313 312 312 314 314 312 312 311 310 310 311
331 330 330 333 334 333 332 331 332 336 338 337 338 339 340 342 340 339 339 337 335 335 336 337 338 338 338 337 337 336 334 330 326 322 319 315 307 301 315 332 326 314 315 321 321 331 333 335 334 334 334 332 330 332 318 310 307 306 306 308 310 309 310 317 313 313 321 318 317 317 317 316 315 314 313 312 312 312 313 313 314 314 312 310 310
332 332 331 330 331 333 332 331 330 333 336 337 338 339 339 340 339 339 339 337 337 336 335 336 336 335 333 334 333 333 332 330 327 325 323 319 318 312 297 296 304 308 305 305 310 312 318 323 333 330 317 311 321 311 304 303 302 302 302 303 303 303 305 305 306 318 320 318 317 316 317 315 316 315 315 314 314 313 313 313 313 312 314 313 313
Wind_Speed
15 16 16 16 16 14 14 14 14 14 15 16 16 16 16 15 14 14 13 13 12 11 9 9 9 7 7 9 9 7 7 6 6 6 6 7 7 7 7 7 7 6 6 6 6 5 5 5 5 5 4 4 4 4 4 4 4 4 4 1 2 1 1 1 0 2 2 2 3 3 4 2 1 0 2 1 3 4 2 2 2 2 1 3 3
14 12 13 14 15 14 14 13 14 15 15 17 18 18 16 15 16 14 12 13 13 13 10 10 10 10 9 9 7 7 7 7 7 6 6 6 8 8 7 7 7 7 6 6 6 6 6 6 5 6 5 4 4 3 3 3 3 3 3 1 1 1 1 2 2 2 3 1 0 2 4 2 1 1 2 1 5 5 3 3 3 4 3 3 2
15 17 16 15 18 17 15 15 16 19 17 17 17 16 16 15 14 14 13 13 13 13 11 10 9 8 9 6 8 5 5 6 6 6 5 7 8 8 7 7 7 6 7 7 6 6 7 6 6 5 5 5 3 3 3 4 3 4 3 3 0 1 1 1 2 2 1 1 0 2 1 1 2 4 3 2 6 5 5 4 3 4 4 3 3
18 18 18 16 17 17 15 15 16 16 16 16 16 18 15 15 14 15 14 14 13 13 13 10 9 7 6 6 6 7 6 5 5 5 5 6 7 7 7 8 8 7 7 7 6 6 6 7 5 5 6 5 5 4 4 4 3 3 3 2 3 1 0 1 0 1 2 4 0 0 1 2 2 2 2 3 1 5 6 4 3 3 5 4 3
20 20 18 17 18 19 18 17 16 16 17 17 17 17 14 18 17 17 15 15 13 13 13 11 8 6 5 4 3 3 1 4 4 6 6 6 6 6 8 8 8 8 7 8 7 7 6 6 6 6 5 5 5 5 5 5 4 5 4 3 3 4 1 0 0 0 2 3 4 2 2 1 1 1 1 1 2 2 0 2 2 5 6 5 5
22 22 21 20 20 18 17 16 16 16 17 17 18 18 16 15 15 15 13 13 14 14 14 12 11 10 9 9 9 8 8 8 10 11 8 8 9 7 7 8 8 7 7 8 7 6 6 6 6 6 5 5 5 6 5 3 4 4 5 5 4 3 4 2 0 0 0 0 3 2 4 3 3 1 3 2 2 2 1 1 0 4 5 5 4
18 20 21 19 19 19 19 18 18 18 18 17 16 16 16 15 15 16 14 13 13 14 15 12 12 11 13 13 11 12 11 9 8 7 8 7 6 8 8 7 8 9 8 8 7 7 7 6 6 6 6 6 5 5 5 6 6 5 4 4 5 4 3 3 4 3 0 0 1 0 0 1 5 4 2 2 1 2 2 1 1 2 3 5 5
18 19 20 20 20 21 21 21 19 20 18 16 16 15 17 16 16 17 14 14 13 13 15 14 13 12 13 12 11 11 12 11 10 10 7 6 7 8 7 7 8 8 8 8 8 7 7 7 6 6 6 6 6 6 6 5 5 3 5 5 5 4 4 6 4 3 4 2 1 1 1 3 2 2 3 5 5 4 2 2 1 1 1 2 4
20 19 20 21 20 20 21 20 21 19 16 16 16 16 17 16 16 14 14 14 13 16 15 15 13 13 13 12 11 10 10 9 8 7 7 7 8 7 8 8 7 7 7 8 8 8 7 7 7 6 6 7 6 6 5 5 6 6 4 4 5 4 4 3 4 5 4 4 2 1 3 2 2 3 2 2 2 2 1 1 1 1 1 2 3
20 22 22 22 21 21 22 22 21 18 18 18 18 16 16 14 15 16 15 14 14 16 16 16 15 13 12 12 14 11 9 7 7 8 8 7 9 9 8 8 8 7 7 7 8 8 8 7 7 8 7 7 6 6 5 5 5 6 7 6 6 5 3 5 5 5 4 4 3 4 2 1 2 1 1 3 2 1 3 2 3 5 4 4 3
19 20 21 22 22 22 20 20 20 19 17 18 17 17 16 17 17 18 18 14 15 17 17 17 15 14 13 14 15 14 12 10 9 9 8 7 9 9 9 8 8 8 7 7 8 8 8 8 8 8 7 7 7 6 6 6 6 7 7 5 6 6 5 4 3 3 3 3 3 5 5 5 5 3 4 2 1 1 2 0 1 3 5 3 3
20 19 19 20 19 18 17 19 19 19 17 17 17 17 17 17 18 20 18 17 15 16 17 17 15 14 14 14 14 13 13 11 12 12 11 11 10 10 9 8 8 7 7 7 8 9 8 8 8 8 8 7 8 7 6 6 7 6 7 7 6 5 5 5 4 4 3 3 3 3 5 3 2 2 4 5 5 4 5 3 2 0 1 1 1
20 19 18 18 18 18 18 19 18 18 18 19 19 18 18 18 20 20 19 18 17 17 18 17 16 15 14 15 14 12 12 13 13 12 10 10 10 10 9 9 8 8 8 9 9 11 9 9 8 9 9 8 7 7 7 7 7 7 7 6 6 6 6 6 5 5 5 5 6 3 4 4 5 4 3 3 3 4 6 3 2 1 2 1 1
19 19 19 19 19 19 20 20 19 19 20 20 19 18 17 17 20 21 21 19 17 17 18 17 17 16 15 14 14 12 12 12 11 12 11 9 9 11 11 11 10 11 11 11 11 11 9 9 9 9 9 8 8 8 8 8 8 8 7 7 6 6 5 6 6 5 5 5 3 3 3 4 5 3 5 4 4 4 3 5 3 1 1 2 1
18 18 19 19 20 21 20 20 19 19 20 19 18 18 18 18 19 21 20 19 19 18 17 18 16 15 14 14 13 12 12 11 11 10 10 10 9 10 10 10 10 10 11 10 10 11 11 10 10 9 9 9 8 8 8 8 8 7 7 7 7 6 6 6 6 6 6 5 4 4 5 3 5 4 5 5 5 6 5 6 6 4 0 1 1
18 19 19 21 21 21 20 19 19 18 20 19 20 19 19 19 20 21 21 20 19 18 17 18 16 14 15 15 15 14 12 11 10 9 9 10 10 11 11 10 10 10 9 10 11 11 11 11 11 10 10 9 9 9 9 8 8 8 7 7 7 5 6 6 6 6 7 6 6 5 3 5 4 4 4 4 5 5 5 5 5 5 5 3 1
19 19 18 20 19 20 20 20 18 18 18 20 21 21 22 19 18 20 19 18 19 19 18 17 16 15 15 15 14 14 14 13 12 12 12 11 10 10 10 10 10 9 10 10 11 11 11 11 11 11 10 10 9 8 9 9 9 8 8 7 8 6 6 7 6 7 7 6 5 5 6 5 4 3 3 3 4 4 5 5 6 6 6 3 2
20 20 20 21 21 22 20 19 20 21 22 22 22 20 19 19 20 20 19 20 18 18 18 16 17 16 15 16 15 15 14 14 12 12 11 10 10 9 9 9 11 10 10 10 11 12 12 12 11 11 10 10 11 9 9 9 9 8 8 8 8 7 7 6 7 7 7 6 5 4 5 5 4 4 5 4 4 5 5 5 4 4 6 6 4
17 18 18 19 18 19 19 20 21 22 22 22 21 19 17 17 18 20 22 21 21 18 17 15 16 14 13 15 16 15 13 13 12 11 11 12 12 11 11 11 10 10 10 11 11 12 12 12 11 11 10 11 10 10 9 8 9 9 8 8 7 8 8 8 7 7 7 6 6 5 5 6 5 5 4 4 4 5 5 5 4 5 5 5 6
17 18 18 19 20 21 21 20 20 20 19 18 19 18 20 19 19 19 18 18 18 18 17 17 16 14 14 14 14 14 13 13 12 12 12 13 13 12 12 12 13 11 11 12 12 13 13 13 11 11 11 11 11 10 10 9 9 9 9 8 8 9 9 9 8 7 6 7 6 6 6 6 5 4 4 4 5 4 5 5 5 5 4 4 5
17 18 18 19 19 19 19 19 20 19 18 17 17 20 20 18 18 19 20 19 19 19 18 16 15 15 16 16 15 14 15 13 13 13 13 13 12 12 12 12 10 12 12 13 13 13 13 13 12 11 12 12 12 11 10 9 9 9 9 9 8 9 10 9 8 8 6 7 7 7 6 5 4 5 5 4 4 5 4 5 5 5 5 3 5
19 19 19 19 17 18 18 17 15 15 15 18 18 17 17 19 19 19 18 19 20 19 18 17 15 15 16 16 16 14 14 13 14 13 14 13 13 13 12 11 14 13 13 14 14 13 12 13 12 12 12 12 12 12 11 10 10 10 9 8 9 10 10 9 8 9 8 7 6 7 6 5 3 4 4 4 4 4 4 4 3 5 5 5 4
19 20 19 18 18 18 18 19 18 19 19 19 18 18 19 20 19 18 20 21 20 20 17 16 16 16 17 16 15 14 14 15 15 14 15 14 13 13 12 14 14 13 13 13 13 13 13 13 13 12 12 12 13 12 11 11 11 11 11 10 9 10 11 10 9 9 8 6 6 6 6 5 3 3 4 5 4 4 4 5 4 3 4 5 5
20 20 19 18 17 16 15 16 16 15 15 17 18 18 18 17 18 18 21 21 19 18 17 17 17 17 17 16 16 15 16 16 16 15 16 15 14 13 13 14 14 12 13 12 13 13 13 13 14 13 13 13 13 12 11 11 12 12 11 11 10 10 10 9 9 8 7 7 7 6 6 5 4 4 4 4 4 4 4 4 4 4 4 5 4
19 19 19 15 10 11 13 16 17 16 16 17 18 18 17 18 17 19 19 19 18 17 17 17 17 18 18 17 17 16 17 17 17 15 17 16 15 14 13 14 13 13 14 12 12 12 13 13 14 14 14 13 13 13 12 12 11 11 11 10 10 9 9 9 8 7 6 7 7 8 6 5 5 5 4 5 4 4 3 3 4 4 5 5 4
20 18 14 13 14 15 14 15 15 16 17 17 17 18 18 18 19 18 15 15 17 16 17 17 17 18 17 18 18 17 18 19 18 17 17 16 15 14 14 13 14 14 13 13 13 12 13 14 14 14 14 14 13 12 13 12 12 10 9 9 8 8 8 8 8 8 7 7 7 7 6 6 6 7 6 5 4 5 4 5 5 5 6 5 6
17 15 13 11 11 16 17 17 17 17 17 17 18 18 18 17 18 17 16 16 16 16 16 17 17 18 17 18 18 18 18 18 18 17 15 15 15 15 15 15 14 14 14 13 14 14 13 13 14 13 13 13 12 12 11 10 10 9 9 9 9 9 9 8 8 8 8 8 7 6 6 6 7 7 7 7 6 6 6 7 7 7 6 6 6
12 12 12 14 14 15 16 17 17 17 17 16 16 17 17 17 18 17 16 16 14 16 17 17 17 17 18 19 18 18 17 17 16 16 15 15 15 15 15 14 13 14 14 15 15 15 13 12 12 13 12 11 11 10 10 10 9 10 9 9 10 10 10 9 7 8 8 8 8 7 7 7 7 8 8 8 7 7 6 7 7 6 7 6 6
12 13 14 14 15 15 17 17 17 17 16 16 15 14 14 15 15 16 16 18 17 16 17 17 17 18 19 18 16 16 15 16 16 16 16 16 16 15 14 13 13 13 13 14 13 13 13 13 12 12 11 10 11 11 10 10 10 10 10 10 11 11 11 9 8 8 7 8 8 8 8 7 8 10 12 10 9 9 7 7 7 6 6 6 6
18 18 18 17 18 17 16 15 14 14 15 15 15 16 17 17 17 18 18 18 16 17 18 18 19 19 17 16 16 15 15 16 16 17 17 16 15 15 14 14 14 14 13 12 12 12 13 13 13 12 11 10 10 9 12 17 15 12 12 10 10 11 11 9 8 8 8 8 9 8 8 12 14 16 14 14 14 14 13 10 8 7 7 6 7
13 15 17 16 16 15 14 14 15 15 17 16 15 15 15 16 16 17 18 17 17 18 18 19 20 18 16 16 16 16 15 17 17 16 16 16 16 15 14 14 14 13 14 13 12 13 13 12 13 12 13 11 10 10 16 17 18 20 15 12 12 11 9 9 9 9 9 9 8 8 7 11 13 13 13 16 15 15 15 15 13 11 9 8 7
17 15 12 11 12 12 13 15 15 16 16 15 15 14 15 16 17 18 18 17 17 18 19 19 18 16 16 17 17 16 16 17 16 17 17 16 15 14 14 14 13 14 13 12 13 14 13 12 11 12 13 12 11 13 18 20 21 23 19 13 10 9 9 9 10 10 10 9 9 9 8 7 9 10 8 8 11 14 13 12 10 10 10 11 11
6 6 7 10 13 13 14 14 14 15 16 17 18 16 17 18 18 19 16 16 18 19 19 19 18 17 18 18 16 16 17 16 17 17 15 14 15 15 14 14 15 14 12 13 14 13 12 12 13 14 14 13 11 15 20 22 23 23 21 15 9 10 10 10 10 10 10 10 9 9 8 7 7 12 9 7 6 5 7 9 10 11 11 12 14
10 9 10 10 10 11 14 17 17 18 20 20 18 19 19 20 20 17 16 17 18 18 18 18 17 18 18 17 17 17 17 17 16 15 14 15 15 16 15 14 12 12 12 13 13 14 13 13 14 14 13 12 12 15 21 22 22 21 20 17 10 10 10 10 11 10 9 9 9 8 8 8 5 6 7 7 6 6 5 4 4 4 5 8 10
13 15 15 15 15 15 16 17 17 18 16 13 14 17 17 16 15 16 18 19 19 19 18 17 17 18 18 17 17 17 17 16 15 15 15 15 15 14 14 13 12 13 13 14 14 14 13 13 13 12 11 11 11 17 21 22 21 21 21 18 11 9 9 9 9 8 8 8 7 8 8 9 7 7 7 7 6 5 3 4 4 4 4 5 6
12 17 18 17 16 15 17 17 15 13 13 14 16 17 16 16 15 17 18 18 19 19 18 17 17 18 18 18 18 18 17 15 15 15 15 15 15 15 15 13 11 11 11 11 11 11 13 13 12 12 12 11 9 18 21 22 22 20 20 13 10 9 8 7 7 7 7 7 8 8 8 8 8 7 8 11 7 4 3 4 1 1 4 6 6
6 7 7 8 11 15 17 16 14 15 15 16 17 16 16 15 15 16 17 18 18 18 18 18 19 18 19 18 18 18 17 16 16 16 16 16 15 14 13 11 12 12 12 12 13 13 12 12 12 12 12 10 9 17 22 23 22 22 15 9 9 8 8 8 7 7 7 7 8 8 8 8 7 7 9 10 9 7 3 4 4 6 8 6 7
6 6 7 12 12 9 7 6 8 11 14 15 16 15 14 14 16 16 16 16 17 19 19 19 19 19 19 18 17 17 16 16 16 17 17 15 14 12 13 12 13 13 13 13 11 10 10 11 12 12 12 11 10 16 23 23 22 20 16 12 10 9 9 8 7 7 7 7 8 14 10 8 8 7 10 11 11 8 7 7 6 7 8 8 7
7 6 7 7 8 13 16 13 10 10 10 8 8 12 13 14 15 16 16 17 18 19 18 19 19 19 18 17 16 16 16 16 17 17 16 16 15 14 11 11 12 12 11 9 9 9 8 8 10 11 14 14 10 13 21 20 19 18 16 10 10 8 8 7 7 7 6 7 7 10 13 9 8 9 12 12 12 10 7 7 8 7 8 8 7
9 9 6 7 6 5 5 6 9 13 12 10 10 10 13 15 16 16 17 17 18 19 19 19 19 16 14 14 14 16 16 16 17 16 15 15 12 11 11 12 10 10 9 8 9 9 10 8 8 9 10 10 8 6 11 16 17 18 19 11 9 9 9 8 7 7 6 5 6 6 8 12 13 12 12 13 12 13 9 8 6 7 7 9 3
10 10 10 5 4 6 10 11 11 12 12 12 11 12 15 16 15 14 17 19 20 19 18 16 14 14 16 17 16 17 18 17 16 15 14 12 11 12 12 12 10 8 9 9 9 8 8 7 6 4 5 5 6 7 9 15 15 17 17 13 8 9 8 8 7 7 7 7 7 6 5 8 12 12 14 13 12 11 12 7 3 3 4 3 6
5 8 9 7 7 4 3 5 6 2 4 4 5 14 17 16 15 16 18 17 16 15 13 12 13 16 17 17 17 17 17 15 14 13 13 13 12 12 12 12 10 10 11 10 8 7 7 6 5 5 5 5 6 9 9 10 14 16 17 15 9 8 9 8 7 6 6 6 7 6 6 8 11 12 13 11 11 11 6 9 4 9 4 6 1
10 10 10 6 5 6 6 4 4 2 6 5 2 5 8 10 15 19 18 18 17 14 13 13 14 15 16 17 17 18 16 13 14 15 15 13 11 12 11 11 11 10 11 10 8 7 8 7 6 5 5 5 5 6 12 11 12 15 16 14 12 9 10 8 8 8 8 7 6 6 6 8 10 10 10 11 7 11 13 12 10 6 7 6 3
8 7 8 7 3 3 3 5 5 6 1 7 10 11 9 5 10 12 12 12 13 14 14 14 14 15 15 14 15 16 15 14 15 15 14 14 12 11 11 10 10 11 9 9 7 8 8 8 7 6 5 5 5 5 8 12 12 14 13 15 12 11 12 8 7 7 6 6 6 5 5 7 8 9 9 7 10 10 9 11 8 7 7 5 2
10 11 10 7 7 6 4 3 5 3 1 2 5 11 9 12 11 6 4 7 10 13 14 14 14 14 14 13 13 13 14 15 15 16 15 13 12 12 11 8 10 9 9 9 7 7 8 7 7 7 6 5 6 6 6 8 13 14 15 16 13 10 11 9 6 3 4 4 5 7 7 9 8 7 6 7 9 10 8 7 7 8 7 3 2
8 10 10 8 7 6 8 9 10 12 12 7 3 3 11 11 9 10 10 9 7 6 10 13 13 13 14 15 15 14 14 15 15 14 15 14 15 12 12 10 10 10 9 10 9 8 8 8 7 7 7 7 6 5 5 6 7 10 11 16 14 11 9 7 6 4 5 7 8 9 10 9 8 8 6 4 4 5 6 7 6 6 2 3 3
9 7 7 7 8 9 10 9 9 10 8 8 8 6 6 8 10 10 7 8 5 2 6 9 13 13 15 16 18 14 13 14 14 12 12 11 11 11 12 11 10 10 9 9 10 9 9 9 9 8 7 7 7 6 6 5 5 6 6 7 6 6 7 9 7 5 7 6 6 6 6 6 6 7 4 3 3 5 4 3 3 4 3 3 4
7 7 5 6 8 9 10 10 10 8 8 7 6 7 6 5 7 10 10 11 12 8 6 8 10 13 14 16 16 21 19 13 13 14 13 11 10 12 13 12 12 12 12 10 10 10 10 10 9 8 8 7 6 6 6 7 7 7 6 6 6 6 7 6 6 5 5 6 6 7 8 5 5 4 3 3 1 2 2 3 4 3 4 4 4
8 8 7 7 5 7 8 8 8 6 6 7 7 7 7 4 6 8 12 12 11 13 13 8 3 6 8 11 13 14 14 15 13 10 9 8 10 12 11 8 5 9 11 12 10 9 8 8 9 9 8 7 6 7 8 8 10 12 11 8 7 7 7 7 8 11 7 6 6 6 5 5 4 5 3 2 2 3 3 3 3 3 3 3 3
7 5 3 4 6 6 6 7 6 5 6 6 4 3 3 4 2 8 12 13 13 13 11 9 11 7 8 6 8 10 11 11 14 15 14 12 17 16 9 9 7 6 6 7 10 8 7 7 8 6 7 9 10 10 10 14 13 14 14 15 13 14 13 10 13 15 10 7 6 6 5 5 5 5 5 4 5 5 4 4 4 4 3 4 3
8 7 8 6 3 3 4 3 4 6 7 7 6 3 2 3 3 5 12 16 15 13 12 10 8 8 6 8 7 8 7 8 10 12 13 13 10 12 19 17 12 9 7 7 8 12 13 11 9 6 2 3 4 10 14 14 14 14 14 13 14 15 15 16 16 11 6 7 6 6 5 4 5 5 4 5 5 5 5 5 5 3 5 5 4
Wind_Direction
191 189 189 189 188 182 179 177 178 175 176 178 178 182 182 182 181 185 182 181 181 182 185 186 187 186 188 191 195 193 191 192 197 201 173 186 185 187 186 186 185 178 173 169 177 169 167 165 165 179 175 162 176 206 200 208 189 174 181 171 139 63 348 23 310 100 72 356 351 1 349 334 272 322 305 98 146 173 133 113 76 68 80 134 142
180 186 191 187 190 183 179 179 176 177 182 179 182 183 182 180 183 181 181 183 185 185 185 188 190 190 185 188 184 186 187 190 198 208 183 180 186 190 186 186 183 179 173 175 177 168 163 167 173 180 174 175 192 211 206 191 176 156 143 85 18 137 230 232 231 79 11 126 46 324 347 336 6 14 321 112 172 153 134 142 145 139 154 145 119
185 188 188 188 188 184 181 181 183 184 182 183 183 178 182 183 184 181 183 184 187 185 184 189 190 187 183 176 177 180 199 194 192 195 177 175 192 189 182 182 179 180 176 175 172 174 173 170 180 176 181 175 181 214 191 189 168 167 163 146 89 17 270 215 193 135 172 124 57 72 334 58 340 11 347 79 168 144 142 163 151 139 143 129 127
188 188 189 187 187 185 182 185 186 184 183 183 182 184 184 186 184 184 184 184 185 187 185 185 184 181 182 168 174 174 181 188 193 194 177 173 187 184 184 179 178 181 179 173 175 174 173 176 177 178 185 172 174 178 196 181 141 153 165 154 126 155 356 281 189 153 133 126 23 132 204 107 47 357 22 16 71 147 166 147 100 119 126 129 128
189 189 189 186 186 188 187 187 183 183 186 186 187 187 187 188 184 183 182 183 183 184 184 175 169 159 154 146 152 166 135 177 185 210 193 187 178 181 190 182 180 181 177 177 176 175 175 173 176 186 178 175 166 179 182 180 181 171 165 144 151 163 209 246 344 74 173 174 144 99 28 28 216 223 49 26 351 121 51 92 128 133 146 152 140
185 188 189 188 188 189 187 182 183 187 188 190 189 190 188 186 181 181 180 181 183 182 180 176 176 171 167 171 183 192 197 194 201 200 196 191 190 182 183 185 181 179 178 178 178 170 176 178 179 179 177 179 173 190 177 165 183 160 178 162 173 187 162 131 100 281 293 274 151 170 163 173 176 249 76 195 322 354 340 5 191 164 155 146 147
192 190 190 188 188 187 187 187 186 188 192 189 188 189 188 184 182 180 181 182 180 180 178 177 177 182 184 187 190 194 198 211 205 202 200 193 170 177 183 184 181 177 181 180 174 178 179 178 178 180 177 180 182 175 170 183 187 186 165 155 175 162 122 155 168 228 358 323 354 28 86 108 135 120 198 104 107 314 355 279 252 206 150 140 155
189 193 192 191 188 187 189 192 189 191 188 184 186 186 185 185 182 182 181 179 180 178 179 180 180 182 186 190 193 196 200 203 198 202 194 167 174 178 176 183 183 181 177 182 180 178 179 179 175 174 175 180 177 181 182 191 185 180 175 176 167 163 156 153 185 183 158 238 346 80 72 96 109 110 122 159 161 161 221 319 298 341 29 164 164
188 190 193 193 191 191 191 191 194 190 180 184 187 186 187 184 181 179 178 177 179 179 181 184 183 182 185 187 192 202 201 202 198 194 184 175 174 176 179 180 183 183 180 180 183 182 183 179 172 175 177 179 183 180 188 170 178 166 155 149 170 177 162 163 138 190 160 188 125 25 51 46 50 84 107 96 135 126 246 194 227 318 54 287 230
191 191 192 193 193 192 192 192 191 189 185 185 186 184 183 180 180 179 179 179 178 181 183 184 185 182 184 189 193 197 196 192 186 189 188 176 178 179 180 178 183 183 186 186 182 184 182 176 176 181 183 183 182 183 182 171 175 171 171 171 174 165 176 153 167 184 183 181 162 157 124 68 47 24 44 83 70 96 158 183 207 188 192 251 223
191 194 194 194 194 193 191 190 192 190 187 184 183 183 181 181 182 183 183 179 179 182 183 186 186 186 188 189 193 195 194 185 183 191 183 176 179 181 181 185 183 184 180 188 186 183 182 179 181 183 186 185 183 178 187 179 183 177 174 170 171 163 169 177 178 180 174 171 171 162 183 168 175 171 209 168 143 117 70 286 281 225 197 196 225
190 192 195 196 196 196 189 192 191 190 184 184 185 183 182 183 182 185 185 181 179 182 184 186 187 190 191 190 194 196 191 189 188 188 185 182 182 182 184 179 185 182 182 181 187 186 183 181 182 181 188 189 188 180 186 181 183 179 170 174 177 175 169 166 171 191 190 189 198 186 193 175 155 174 192 166 158 186 150 196 193 236 42 205 259
188 191 192 192 194 194 193 195 191 188 187 186 185 183 184 184 183 184 188 185 181 181 185 187 188 191 191 193 196 196 195 194 192 190 184 182 182 180 178 185 181 179 187 184 188 188 185 180 179 184 191 192 186 175 187 181 177 177 177 178 172 174 184 172 169 190 192 193 216 211 185 185 207 209 159 184 197 143 150 133 259 120 164 285 296
189 190 191 190 193 194 195 192 190 191 190 186 184 184 184 186 186 186 188 186 184 183 185 187 191 191 192 193 195 195 198 197 197 193 188 184 181 184 183 185 183 186 184 188 186 186 188 188 184 185 190 188 185 183 184 185 178 178 179 176 181 187 178 177 179 191 198 214 196 199 205 209 238 203 209 180 169 140 152 155 160 13 63 207 307
190 191 191 192 193 194 195 193 191 191 190 186 185 186 184 186 187 189 187 187 186 187 186 188 190 192 193 194 195 196 199 199 199 195 189 187 184 184 188 185 183 186 187 188 183 185 187 187 189 184 188 187 185 187 188 184 182 177 179 186 182 179 183 179 189 188 202 214 215 203 207 217 209 207 172 195 169 182 166 164 146 144 343 3 301
192 191 193 194 194 195 195 194 193 191 189 187 187 186 186 188 188 188 187 185 187 188 190 189 189 191 193 194 196 196 199 200 201 197 195 193 187 185 188 188 186 183 187 182 186 184 187 188 191 192 190 187 187 189 187 182 182 179 184 185 187 177 181 186 197 195 205 202 207 210 189 207 210 178 169 172 179 179 165 149 141 148 161 246 341
191 192 193 195 196 196 195 194 191 190 188 190 190 188 188 185 186 188 188 186 187 189 189 190 190 190 194 195 195 196 197 198 199 197 195 196 191 190 188 189 185 182 183 185 183 188 189 189 190 193 192 192 187 191 188 183 181 184 184 187 190 183 179 193 195 197 212 207 202 199 196 198 214 190 150 159 160 146 150 158 158 162 163 154 224
192 192 192 194 195 195 196 194 191 189 191 192 191 189 186 184 184 184 186 187 190 188 189 190 190 192 193 196 198 197 198 199 198 195 194 193 193 190 186 186 189 184 182 184 183 187 191 190 191 194 195 192 193 190 188 184 180 188 189 190 191 179 186 196 201 199 208 205 206 201 198 195 204 178 178 175 168 164 155 162 166 151 151 171 181
192 194 195 198 196 196 194 194 194 193 192 190 188 183 184 186 186 185 186 187 186 188 190 191 190 191 193 195 197 198 199 199 198 195 192 195 194 190 189 188 184 185 184 183 184 188 190 193 192 194 194 195 195 192 188 183 183 186 191 193 190 183 188 199 207 200 209 199 204 206 200 202 191 195 195 183 181 164 169 163 158 140 158 150 162
192 194 198 197 198 197 195 194 192 191 191 190 184 184 186 186 184 188 189 187 186 187 187 191 191 190 191 193 198 198 198 198 196 193 196 199 197 191 188 186 189 185 188 186 186 189 191 192 194 194 194 195 195 195 188 186 184 189 188 191 193 186 191 199 204 204 198 196 196 203 205 204 199 193 206 196 191 191 171 167 165 164 167 159 149
191 194 196 199 199 197 196 194 192 189 186 183 183 187 188 183 186 185 185 186 188 188 188 190 188 191 189 192 195 196 198 197 198 198 199 200 197 194 192 190 183 192 188 190 190 192 192 193 192 195 195 194 194 194 191 186 188 190 191 193 188 190 195 201 199 205 205 194 198 200 207 210 188 189 203 201 193 193 175 177 170 161 169 160 153
192 193 196 199 196 195 195 193 188 180 180 185 187 186 184 186 188 186 185 188 187 188 189 187 187 189 191 192 193 194 195 196 199 200 203 201 198 196 192 186 193 194 190 192 192 192 193 193 194 196 196 196 194 194 190 188 190 191 193 191 191 193 200 201 197 203 204 204 196 200 210 210 187 193 193 196 189 175 177 181 185 174 183 182 190
195 196 200 197 192 193 190 186 183 184 185 185 182 184 188 190 186 186 187 190 188 188 186 185 186 188 192 191 190 192 193 197 199 202 204 202 201 195 190 192 196 195 195 194 192 192 192 194 196 197 196 197 195 194 193 191 194 194 195 196 195 196 201 201 200 205 201 199 195 201 209 201 175 190 200 201 185 181 179 181 197 189 194 205 192
196 198 200 199 196 190 182 182 182 182 180 181 185 189 190 189 188 187 192 188 187 186 185 185 186 189 189 189 190 191 192 196 201 203 204 204 200 197 193 196 196 194 195 199 194 190 191 195 198 197 198 198 197 197 195 196 196 196 198 201 199 201 205 205 205 203 197 194 200 200 211 199 185 194 206 206 201 195 187 191 194 201 201 212 208
198 199 201 196 179 171 181 184 184 183 182 182 185 187 187 190 190 191 194 187 187 184 185 185 186 187 188 190 191 189 192 197 202 203 204 202 201 198 196 198 195 197 197 195 197 193 193 195 199 198 198 200 200 197 196 199 201 199 200 200 201 203 207 209 208 206 197 194 198 204 201 194 188 198 209 206 199 198 204 196 209 213 209 217 210
198 199 192 182 178 181 182 184 187 185 181 183 186 188 189 189 192 191 187 186 189 187 186 184 187 188 189 191 191 190 194 197 201 202 203 202 202 200 199 200 197 198 195 196 195 196 197 198 199 199 199 201 199 199 199 200 199 197 197 199 201 202 205 208 207 203 199 194 200 202 197 193 190 196 207 207 201 205 203 212 221 222 219 215 216
195 192 189 183 179 184 184 184 185 185 185 185 187 188 189 188 188 187 186 186 188 187 186 187 188 190 190 193 192 193 194 197 199 201 200 201 202 203 202 201 198 199 195 196 199 200 200 198 199 198 200 200 199 198 200 199 197 195 197 197 199 201 205 207 208 201 200 198 197 196 198 195 196 197 200 205 204 208 208 219 219 220 221 217 222
191 186 181 181 186 186 184 186 186 187 187 188 189 188 187 186 187 187 183 183 187 188 188 189 189 192 194 194 194 193 194 196 198 199 200 201 203 204 205 203 197 199 200 199 199 200 200 198 198 199 200 197 196 196 197 196 193 195 196 201 201 202 204 208 199 202 202 200 197 197 199 198 196 197 199 202 196 204 210 225 223 220 220 217 223
189 191 186 187 188 189 190 187 187 185 185 185 185 189 187 186 186 185 184 187 185 187 190 190 191 195 197 194 193 194 195 195 196 197 199 202 203 205 204 201 200 202 203 203 201 198 197 200 199 198 195 194 195 196 193 190 188 195 200 203 203 204 202 199 197 202 201 200 200 204 204 201 202 200 198 199 200 200 200 215 224 210 215 214 223
192 193 192 193 193 191 190 184 182 181 184 184 186 187 187 187 189 187 188 188 182 189 190 191 195 198 195 193 193 193 194 194 195 197 199 201 203 204 203 202 202 203 203 201 200 199 199 199 197 196 195 195 198 197 192 186 187 194 200 204 204 206 203 197 197 198 203 203 205 203 204 204 208 211 206 207 209 211 209 205 209 194 203 208 219
206 199 196 194 191 187 184 181 183 184 185 186 187 188 188 190 189 188 190 187 185 188 192 194 199 197 192 192 192 195 193 195 198 197 198 200 202 202 202 203 203 201 201 199 198 199 201 199 196 194 197 200 199 196 181 180 189 200 201 202 203 204 197 195 196 201 204 204 208 207 205 209 212 216 215 211 215 217 219 216 212 203 198 199 209
197 200 198 194 189 184 181 184 187 187 187 186 187 186 185 191 190 193 193 187 187 190 193 196 199 192 192 194 196 193 194 197 196 199 199 200 200 201 202 202 202 201 201 198 198 201 200 196 196 197 200 201 200 186 175 181 193 204 203 201 200 197 194 195 197 202 205 202 204 204 205 207 211 213 206 210 217 222 224 227 229 229 225 217 213
203 206 197 190 187 185 186 186 186 189 190 193 188 184 190 193 192 196 189 185 190 193 194 197 195 191 193 195 195 193 196 195 198 198 198 197 199 200 201 201 203 202 197 198 202 198 198 197 196 199 203 200 201 181 178 186 198 203 202 199 196 195 192 196 198 201 202 201 201 201 206 211 217 206 195 194 191 209 229 238 248 253 251 234 228
182 187 191 196 196 194 191 189 189 193 194 194 188 189 196 195 194 189 184 190 192 195 195 197 194 194 194 194 193 194 196 197 196 195 195 197 198 201 201 201 201 199 198 201 201 200 198 197 198 200 201 197 201 178 182 190 200 201 199 199 200 192 195 197 200 201 202 203 200 198 203 214 206 193 192 190 191 208 227 250 260 253 236 231 223
185 189 194 194 195 200 202 200 200 198 198 191 193 197 198 195 190 186 190 191 193 194 196 197 195 196 194 193 193 194 197 195 192 192 194 197 199 199 200 199 197 197 198 199 200 200 200 199 198 198 198 197 200 175 183 191 198 200 200 196 203 195 196 199 201 202 200 194 192 198 204 209 203 204 203 199 196 203 208 237 249 245 225 232 231
198 194 193 197 205 203 201 202 202 196 195 194 198 199 194 194 190 192 192 193 193 194 197 195 197 196 195 194 193 194 194 190 189 190 193 197 197 198 199 195 195 198 200 200 201 200 198 198 197 193 196 199 187 171 184 191 197 199 197 197 200 194 192 194 198 200 197 190 190 194 201 204 204 205 210 207 202 176 188 222 225 346 275 259 250
203 189 224 228 211 204 204 203 199 196 195 199 202 197 194 190 189 195 196 196 194 196 197 196 197 196 196 195 193 192 190 188 187 188 193 194 195 197 196 188 192 194 195 197 199 199 197 193 192 193 193 193 181 180 184 192 195 195 186 191 191 190 191 190 197 198 194 189 192 195 199 201 195 200 204 201 208 179 147 144 166 217 239 239 245
280 281 226 199 201 217 232 230 216 209 205 201 197 192 191 190 193 194 195 199 197 199 199 197 198 197 196 193 192 189 188 186 185 190 192 193 193 192 192 183 188 190 195 197 193 190 188 190 190 192 190 188 188 185 188 191 192 185 179 185 188 188 194 191 196 195 186 189 192 193 190 190 188 196 199 195 199 177 169 191 208 216 228 236 247
318 259 249 252 227 201 200 197 194 207 215 206 196 189 188 194 195 194 196 199 202 203 199 198 200 198 194 190 188 187 186 185 188 191 189 189 189 189 182 179 188 188 190 181 173 176 177 183 189 188 187 188 187 185 191 190 183 175 180 181 179 185 186 195 188 191 189 187 196 198 188 182 190 202 202 203 199 185 195 205 212 216 228 238 237
12 359 309 255 237 253 260 219 208 215 206 184 180 186 195 198 201 196 196 201 205 206 202 201 199 192 188 187 186 186 186 186 188 187 187 187 180 172 173 178 178 175 166 165 164 165 168 177 177 183 187 187 168 162 181 182 178 178 182 176 177 176 187 188 183 176 176 190 193 202 198 190 199 212 216 211 206 189 195 209 201 208 215 229 186
11 358 350 355 290 227 216 224 230 226 209 184 181 189 196 203 201 200 203 205 205 206 204 202 194 187 186 185 185 185 185 186 184 183 179 172 170 171 168 168 161 153 151 153 158 159 158 158 158 150 146 145 153 156 173 181 179 178 183 174 176 181 182 180 177 171 177 178 187 195 204 206 210 220 226 222 215 201 203 201 190 230 241 183 137
359 8 19 6 17 13 313 278 250 286 1 321 232 198 201 203 199 201 206 210 211 208 204 196 188 189 188 186 185 183 181 179 176 169 167 170 171 166 165 159 151 153 153 151 144 140 132 119 101 108 125 122 128 152 157 178 180 182 185 180 168 186 179 168 166 176 178 185 192 197 204 209 210 220 229 230 219 210 125 61 216 213 174 106 111
0 3 1 8 21 2 8 5 337 217 154 143 151 268 264 234 212 205 207 206 201 196 195 193 190 189 189 186 184 178 174 171 169 166 162 162 160 155 149 147 148 148 144 138 136 129 124 117 105 99 103 112 122 130 155 162 182 184 187 188 184 180 169 170 176 183 190 194 191 199 213 218 219 224 227 225 212 118 128 200 194 156 152 163 148
5 359 345 349 3 7 17 358 359 351 344 149 163 183 197 228 267 257 244 215 192 188 186 185 186 187 186 183 179 174 169 162 159 157 155 151 151 146 143 147 145 141 135 130 129 129 128 133 134 122 109 119 134 130 164 167 171 187 188 191 195 173 166 185 179 185 187 188 188 200 206 197 199 206 206 203 114 140 176 192 161 155 143 157 146
357 348 346 342 351 344 342 16 349 340 325 279 181 174 183 207 216 197 219 232 213 189 179 180 180 180 176 174 168 166 163 157 155 152 148 146 142 139 134 136 132 129 131 132 136 137 138 139 138 143 145 152 157 150 149 172 176 178 185 192 188 161 174 162 165 173 167 179 178 169 163 169 176 172 134 123 135 165 166 155 152 156 164 125 120
4 1 355 356 355 9 6 358 359 359 344 340 325 241 202 211 191 179 179 196 208 210 187 176 174 169 167 161 160 158 154 151 148 149 148 148 145 142 137 139 132 133 136 138 144 142 144 147 150 157 163 166 167 154 148 160 176 182 185 192 179 152 117 107 103 102 117 126 138 140 138 136 136 137 142 179 159 150 139 139 143 169 149 125 140
11 358 358 12 24 28 25 21 15 356 355 349 339 4 44 53 47 27 46 62 44 238 206 183 169 165 162 160 155 153 147 144 141 136 135 136 135 134 135 135 136 138 140 145 148 154 156 158 163 163 160 161 165 156 155 162 164 176 186 175 156 142 109 103 100 111 106 101 104 116 129 137 131 132 130 129 88 105 125 150 175 188 180 192 195
1 0 10 35 39 42 44 44 30 17 18 7 358 346 358 37 54 73 69 65 58 19 265 211 181 171 164 159 152 147 143 139 138 135 132 131 133 139 140 143 150 150 151 156 159 167 167 165 162 160 158 156 153 152 161 168 176 173 164 157 167 156 159 146 124 126 120 123 119 109 106 110 117 114 95 95 114 143 168 175 196 193 198 207 219
354 352 9 38 38 45 48 49 43 31 35 38 18 352 341 12 82 97 103 96 82 56 20 341 249 176 145 139 139 141 138 134 122 102 82 92 138 145 132 117 103 141 157 162 168 163 162 163 157 155 150 153 160 184 198 180 174 172 164 158 168 172 161 161 149 137 118 108 109 112 114 121 130 142 159 173 194 206 213 196 201 202 200 195 206
351 341 339 58 64 61 58 58 44 30 58 61 52 26 358 1 57 116 108 99 101 94 81 44 359 17 55 52 97 110 102 106 113 111 108 82 47 43 55 126 138 47 62 135 144 155 156 148 143 151 152 163 183 200 165 157 164 169 170 171 168 161 159 150 150 149 134 132 138 141 151 153 156 157 180 204 217 220 233 233 234 214 196 192 197
5 7 359 344 0 85 90 71 64 54 39 25 11 7 56 80 76 115 123 121 117 110 103 97 71 349 66 83 65 70 92 117 121 120 109 107 93 51 45 46 58 70 77 90 122 125 131 139 138 143 65 12 156 138 145 148 148 157 160 154 149 151 149 145 145 134 124 143 147 152 165 187 169 169 190 210 216 212 225 231 243 206 200 202 203